MXA214 MMSM-MMTJ

Flight info

Callsign MXA214
Flight time 3h 17m
Altitude 35000
Route ATURO2C ATURO UT134 ZCL UJ5 DGO DCT TAVLO DCT HMO DCT AVRIL UJ3 TANRI TANRI1B
Aircraft A320/M-SDE3FGHIRWY/LB1

Departure

Time 2026-04-24 16:40
Airport Felipe Ángeles International Airport (MMSM)

Arrival

Time 2026-04-24 19:58
Airport General Abelardo L. Rodriguez International Airport (MMTJ)
Time Latitude Longitude Altitude Speed Heading
2026-04-24 16:22 19.73154 -99.02569 7388 ft 0 kts 317°
2026-04-24 16:32 19.73145 -99.02560 7388 ft 2 kts 331°
2026-04-24 16:32 19.73126 -99.02557 7388 ft 3 kts 13°
2026-04-24 16:33 19.73109 -99.02568 7388 ft 3 kts 47°
2026-04-24 16:33 19.73099 -99.02580 7388 ft 1 kts 48°
2026-04-24 16:33 19.73097 -99.02583 7388 ft 0 kts 48°
2026-04-24 16:36 19.73099 -99.02580 7388 ft 1 kts 54°
2026-04-24 16:36 19.73102 -99.02567 7388 ft 3 kts 90°
2026-04-24 16:36 19.73097 -99.02543 7388 ft 4 kts 106°
2026-04-24 16:37 19.73086 -99.02508 7388 ft 6 kts 106°
2026-04-24 16:37 19.73092 -99.02463 7388 ft 7 kts 96°
2026-04-24 16:37 19.73077 -99.02432 7388 ft 8 kts 128°
2026-04-24 16:37 19.73017 -99.02374 7388 ft 10 kts 138°
2026-04-24 16:38 19.72963 -99.02323 7388 ft 11 kts 137°
2026-04-24 16:38 19.72944 -99.02304 7388 ft 4 kts 137°
2026-04-24 16:38 19.72921 -99.02283 7388 ft 5 kts 138°
2026-04-24 16:38 19.72914 -99.02250 7388 ft 5 kts 72°
2026-04-24 16:39 19.72917 -99.02243 7388 ft 0 kts 53°
2026-04-24 16:39 19.72947 -99.02204 7388 ft 34 kts 49°
2026-04-24 16:39 19.73288 -99.01786 7389 ft 114 kts 49°
2026-04-24 16:40 19.73969 -99.00956 7389 ft 179 kts 49°
2026-04-24 16:40 19.74855 -98.99865 7684 ft 206 kts 49°
2026-04-24 16:40 19.75814 -98.98668 8281 ft 222 kts 50°
2026-04-24 16:40 19.76840 -98.97369 8926 ft 238 kts 51°
2026-04-24 16:41 19.77963 -98.95998 9560 ft 246 kts 44°
2026-04-24 16:41 19.79397 -98.94945 10007 ft 257 kts 30°
2026-04-24 16:41 19.81015 -98.94024 10427 ft 271 kts 29°
2026-04-24 16:41 19.82685 -98.92991 10849 ft 284 kts 32°
2026-04-24 16:42 19.84360 -98.91822 11262 ft 298 kts 34°
2026-04-24 16:42 19.86149 -98.90608 11768 ft 308 kts 26°
2026-04-24 16:42 19.87477 -98.90101 12143 ft 311 kts
2026-04-24 16:42 19.90350 -98.89901 13223 ft 307 kts 359°
2026-04-24 16:43 19.92493 -98.89934 13962 ft 308 kts 357°
2026-04-24 16:43 19.94643 -98.89978 14563 ft 311 kts 358°
2026-04-24 16:43 19.96818 -98.89985 14830 ft 312 kts 359°
2026-04-24 16:43 19.98968 -98.89945 14838 ft 311 kts
2026-04-24 16:44 20.00419 -98.89901 14829 ft 311 kts
2026-04-24 16:44 20.02608 -98.89830 14823 ft 313 kts
2026-04-24 16:44 20.04759 -98.89768 14818 ft 312 kts 360°
2026-04-24 16:44 20.06930 -98.89714 14814 ft 313 kts 360°
2026-04-24 16:45 20.09111 -98.89666 14800 ft 313 kts 359°
2026-04-24 16:45 20.11282 -98.89619 14781 ft 313 kts 359°
2026-04-24 16:45 20.13462 -98.89570 14767 ft 313 kts 360°
2026-04-24 16:45 20.15666 -98.89518 14758 ft 313 kts 360°
2026-04-24 16:46 20.17818 -98.89467 14751 ft 313 kts 360°
2026-04-24 16:46 20.19990 -98.89426 14744 ft 313 kts 358°
2026-04-24 16:46 20.22135 -98.89687 14729 ft 311 kts 345°
2026-04-24 16:46 20.24139 -98.90560 14724 ft 309 kts 327°
2026-04-24 16:47 20.25752 -98.92021 14929 ft 307 kts 310°
2026-04-24 16:47 20.26968 -98.93921 15475 ft 311 kts 301°
2026-04-24 16:47 20.28037 -98.95938 16118 ft 314 kts 299°
2026-04-24 16:47 20.29098 -98.97974 16736 ft 316 kts 300°
2026-04-24 16:48 20.30207 -99.00025 17334 ft 319 kts 301°
2026-04-24 16:48 20.31347 -99.02043 17912 ft 322 kts 302°
2026-04-24 16:48 20.32546 -99.04108 18506 ft 325 kts 303°
2026-04-24 16:48 20.33743 -99.06164 19086 ft 327 kts 302°
2026-04-24 16:49 20.34924 -99.08211 19647 ft 330 kts 302°
2026-04-24 16:49 20.36120 -99.10306 20207 ft 332 kts 302°
2026-04-24 16:49 20.37327 -99.12426 20751 ft 334 kts 302°
2026-04-24 16:49 20.38537 -99.14555 21289 ft 337 kts 302°
2026-04-24 16:50 20.39344 -99.15971 21639 ft 338 kts 302°
2026-04-24 16:50 20.40985 -99.18845 22325 ft 341 kts 302°
2026-04-24 16:50 20.42226 -99.21016 22828 ft 344 kts 302°
2026-04-24 16:50 20.43471 -99.23196 23322 ft 346 kts 302°
2026-04-24 16:51 20.44839 -99.25279 23782 ft 348 kts 310°
2026-04-24 16:51 20.46588 -99.27134 24262 ft 350 kts 318°
2026-04-24 16:51 20.48426 -99.28785 24733 ft 351 kts 320°
2026-04-24 16:51 20.50341 -99.30414 25200 ft 353 kts 321°
2026-04-24 16:52 20.52293 -99.32076 25659 ft 355 kts 320°
2026-04-24 16:52 20.54183 -99.33737 26100 ft 357 kts 319°
2026-04-24 16:52 20.56075 -99.35450 26542 ft 358 kts 318°
2026-04-24 16:52 20.57977 -99.37197 26984 ft 360 kts 318°
2026-04-24 16:53 20.59895 -99.38951 27422 ft 362 kts 318°
2026-04-24 16:53 20.61820 -99.40695 27850 ft 364 kts 318°
2026-04-24 16:53 20.63755 -99.42439 28272 ft 366 kts 318°
2026-04-24 16:53 20.65717 -99.44205 28698 ft 368 kts 318°
2026-04-24 16:54 20.67672 -99.45968 29114 ft 370 kts 318°
2026-04-24 16:54 20.69646 -99.47752 29524 ft 371 kts 318°
2026-04-24 16:54 20.71594 -99.49515 29945 ft 373 kts 318°
2026-04-24 16:54 20.73579 -99.51314 30487 ft 371 kts 317°
2026-04-24 16:55 20.75545 -99.53097 30979 ft 370 kts 317°
2026-04-24 16:55 20.77481 -99.54849 31454 ft 369 kts 317°
2026-04-24 16:55 20.79446 -99.56626 31957 ft 368 kts 317°
2026-04-24 16:55 20.81401 -99.58398 32419 ft 367 kts 317°
2026-04-24 16:56 20.83341 -99.60156 32880 ft 366 kts 317°
2026-04-24 16:56 20.85289 -99.61920 33288 ft 366 kts 317°
2026-04-24 16:56 20.87234 -99.63684 33550 ft 370 kts 317°
2026-04-24 16:56 20.89215 -99.65486 33654 ft 378 kts 317°
2026-04-24 16:57 20.93301 -99.69205 33853 ft 394 kts 317°
2026-04-24 16:57 20.97280 -99.72815 34250 ft 401 kts 317°
2026-04-24 16:58 20.99394 -99.74730 34810 ft 396 kts 317°
2026-04-24 16:58 21.01474 -99.76618 35208 ft 395 kts 317°
2026-04-24 16:58 21.03527 -99.78568 35325 ft 398 kts 311°
2026-04-24 16:58 21.05306 -99.80860 35333 ft 405 kts 304°
2026-04-24 16:59 21.08551 -99.85925 35345 ft 416 kts 302°
2026-04-24 17:00 21.13504 -99.93718 35324 ft 425 kts 303°
2026-04-24 17:00 21.18637 -100.01521 35314 ft 427 kts 303°
2026-04-24 17:01 21.23710 -100.09393 35311 ft 428 kts 303°
2026-04-24 17:02 21.28818 -100.17262 35313 ft 428 kts 303°
2026-04-24 17:02 21.32213 -100.22517 35314 ft 428 kts 303°
2026-04-24 17:03 21.37313 -100.30413 35318 ft 428 kts 303°
2026-04-24 17:04 21.40703 -100.35667 35320 ft 428 kts 303°
2026-04-24 17:04 21.45787 -100.43547 35305 ft 428 kts 302°
2026-04-24 17:05 21.49165 -100.48802 35299 ft 427 kts 302°
2026-04-24 17:06 21.54237 -100.56680 35241 ft 427 kts 302°
2026-04-24 17:06 21.59301 -100.64578 35206 ft 427 kts 302°
2026-04-24 17:07 21.62679 -100.69842 35204 ft 428 kts 302°
2026-04-24 17:08 21.69435 -100.80395 35228 ft 429 kts 302°
2026-04-24 17:08 21.72830 -100.85692 35255 ft 429 kts 302°
2026-04-24 17:09 21.79592 -100.96290 35211 ft 431 kts 302°
2026-04-24 17:10 21.86380 -101.06940 35213 ft 431 kts 302°
2026-04-24 17:12 21.99912 -101.28235 35219 ft 431 kts 302°
2026-04-24 18:54 29.33031 -111.35548 34959 ft 398 kts 304°
2026-04-24 18:55 29.38519 -111.42678 34964 ft 398 kts 304°
2026-04-24 18:56 29.42183 -111.47446 34971 ft 398 kts 304°
2026-04-24 18:56 29.45851 -111.52223 34979 ft 398 kts 304°
2026-04-24 18:57 29.49513 -111.56998 34992 ft 397 kts 304°
2026-04-24 18:57 29.53137 -111.61729 35016 ft 396 kts 304°
2026-04-24 18:58 29.56781 -111.66491 35016 ft 396 kts 304°
2026-04-24 18:58 29.60412 -111.71244 34979 ft 396 kts 304°
2026-04-24 18:59 29.64052 -111.76014 34938 ft 396 kts 303°
2026-04-24 18:59 29.67689 -111.80785 34929 ft 395 kts 303°
2026-04-24 19:00 29.71292 -111.85517 34932 ft 395 kts 303°
2026-04-24 19:00 29.74917 -111.90285 34936 ft 396 kts 303°
2026-04-24 19:01 29.78541 -111.95055 34953 ft 396 kts 303°
2026-04-24 19:01 29.82156 -111.99821 34966 ft 396 kts 303°
2026-04-24 19:02 29.85173 -112.03801 34976 ft 395 kts 303°
2026-04-24 19:02 29.89399 -112.09383 34982 ft 395 kts 303°
2026-04-24 19:03 29.93006 -112.14155 34989 ft 395 kts 303°
2026-04-24 19:03 29.96622 -112.18946 34996 ft 395 kts 303°
2026-04-24 19:04 30.00238 -112.23741 35004 ft 395 kts 303°
2026-04-24 19:04 30.03847 -112.28529 35015 ft 395 kts 303°
2026-04-24 19:05 30.07451 -112.33322 35020 ft 395 kts 303°
2026-04-24 19:05 30.11060 -112.38127 35018 ft 395 kts 303°
2026-04-24 19:06 30.14670 -112.42935 34982 ft 396 kts 303°
2026-04-24 19:06 30.18280 -112.47752 34950 ft 396 kts 303°
2026-04-24 19:07 30.21868 -112.52544 34917 ft 397 kts 303°
2026-04-24 19:07 30.24893 -112.56587 34918 ft 397 kts 303°
2026-04-24 19:08 30.29092 -112.62212 34918 ft 397 kts 303°
2026-04-24 19:08 30.32099 -112.66244 34919 ft 398 kts 303°
2026-04-24 19:09 30.35716 -112.71094 34948 ft 397 kts 303°
2026-04-24 19:09 30.39324 -112.75941 34971 ft 397 kts 303°
2026-04-24 19:10 30.42935 -112.80803 34991 ft 397 kts 303°
2026-04-24 19:10 30.46543 -112.85660 34977 ft 398 kts 303°
2026-04-24 19:11 30.50159 -112.90538 34935 ft 399 kts 303°
2026-04-24 19:11 30.53777 -112.95425 34906 ft 399 kts 303°
2026-04-24 19:12 30.57394 -113.00316 34898 ft 399 kts 303°
2026-04-24 19:12 30.61006 -113.05204 34894 ft 399 kts 303°
2026-04-24 19:13 30.64021 -113.09288 34897 ft 399 kts 303°
2026-04-24 19:13 30.68217 -113.14985 34898 ft 399 kts 303°
2026-04-24 19:14 30.71828 -113.19894 34893 ft 399 kts 303°
2026-04-24 19:14 30.75443 -113.24811 34907 ft 400 kts 303°
2026-04-24 19:15 30.79054 -113.29727 34943 ft 399 kts 303°
2026-04-24 19:15 30.82659 -113.34647 34963 ft 399 kts 303°
2026-04-24 19:16 30.88074 -113.42044 34975 ft 400 kts 303°
2026-04-24 19:16 30.91673 -113.46967 34973 ft 399 kts 303°
2026-04-24 19:17 30.95280 -113.51912 34941 ft 400 kts 303°
2026-04-24 19:17 30.98888 -113.56859 34898 ft 400 kts 303°
2026-04-24 19:18 31.02466 -113.61775 34886 ft 400 kts 303°
2026-04-24 19:18 31.06072 -113.66734 34887 ft 400 kts 303°
2026-04-24 19:19 31.09696 -113.71725 34896 ft 401 kts 303°
2026-04-24 19:19 31.13285 -113.76673 34930 ft 401 kts 303°
2026-04-24 19:20 31.16893 -113.81654 34951 ft 401 kts 303°
2026-04-24 19:20 31.20492 -113.86631 34973 ft 400 kts 303°
2026-04-24 19:21 31.24087 -113.91609 34976 ft 401 kts 303°
2026-04-24 19:21 31.27686 -113.96595 34956 ft 401 kts 303°
2026-04-24 19:22 31.31286 -114.01592 34941 ft 401 kts 303°
2026-04-24 19:22 31.34884 -114.06592 34927 ft 401 kts 303°
2026-04-24 19:23 31.38478 -114.11592 34914 ft 401 kts 303°
2026-04-24 19:23 31.42066 -114.16591 34908 ft 401 kts 303°
2026-04-24 19:24 31.45660 -114.21605 34910 ft 401 kts 303°
2026-04-24 19:24 31.49261 -114.26636 34912 ft 401 kts 303°
2026-04-24 19:25 31.52823 -114.31620 34914 ft 401 kts 303°
2026-04-24 19:25 31.56402 -114.36631 34917 ft 401 kts 303°
2026-04-24 19:26 31.59989 -114.41661 34920 ft 401 kts 303°
2026-04-24 19:26 31.63563 -114.46682 34922 ft 401 kts 303°
2026-04-24 19:27 31.67143 -114.51717 34891 ft 402 kts 303°
2026-04-24 19:27 31.70726 -114.56760 34884 ft 402 kts 303°
2026-04-24 19:28 31.74215 -114.61663 34871 ft 380 kts 302°
2026-04-24 19:28 31.75902 -114.64032 34697 ft 369 kts 302°
2026-04-24 19:28 31.77528 -114.66326 34276 ft 367 kts 302°
2026-04-24 19:29 31.80759 -114.70918 33374 ft 364 kts 302°
2026-04-24 19:29 31.82395 -114.73238 32917 ft 362 kts 302°
2026-04-24 19:29 31.83107 -114.74245 32719 ft 361 kts 302°
2026-04-24 19:30 31.84717 -114.76524 32268 ft 360 kts 302°
2026-04-24 19:30 31.86123 -114.78878 31805 ft 351 kts 293°
2026-04-24 19:30 31.87131 -114.81468 31386 ft 346 kts 287°
2026-04-24 19:30 31.87984 -114.84143 30957 ft 343 kts 285°
2026-04-24 19:31 31.88752 -114.86737 30519 ft 341 kts 285°
2026-04-24 19:31 31.89544 -114.89379 30068 ft 340 kts 285°
2026-04-24 19:31 31.90358 -114.91966 29622 ft 339 kts 286°
2026-04-24 19:31 31.91207 -114.94569 29170 ft 338 kts 287°
2026-04-24 19:32 31.92060 -114.97153 28719 ft 336 kts 287°
2026-04-24 19:32 31.92898 -114.99712 28271 ft 334 kts 286°
2026-04-24 19:32 31.93718 -115.02250 27824 ft 332 kts 286°
2026-04-24 19:32 31.94537 -115.04798 27374 ft 331 kts 286°
2026-04-24 19:33 31.95347 -115.07325 26926 ft 330 kts 286°
2026-04-24 19:33 31.96156 -115.09843 26478 ft 328 kts 286°
2026-04-24 19:33 31.96976 -115.12389 26022 ft 327 kts 286°
2026-04-24 19:33 31.97768 -115.14848 25579 ft 325 kts 286°
2026-04-24 19:34 31.98563 -115.17324 25133 ft 324 kts 286°
2026-04-24 19:34 31.99359 -115.19807 24684 ft 322 kts 286°
2026-04-24 19:34 32.00152 -115.22281 24233 ft 321 kts 286°
2026-04-24 19:34 32.00937 -115.24728 23785 ft 318 kts 286°
2026-04-24 19:35 32.01719 -115.27169 23335 ft 316 kts 286°
2026-04-24 19:35 32.02492 -115.29588 22886 ft 314 kts 286°
2026-04-24 19:35 32.03188 -115.31770 22479 ft 313 kts 286°
2026-04-24 19:35 32.03963 -115.34197 22025 ft 311 kts 287°
2026-04-24 19:36 32.04735 -115.36611 21570 ft 310 kts 287°
2026-04-24 19:36 32.05489 -115.38974 21124 ft 309 kts 287°
2026-04-24 19:36 32.06238 -115.41322 20679 ft 308 kts 287°
2026-04-24 19:36 32.06990 -115.43683 20231 ft 307 kts 287°
2026-04-24 19:37 32.07739 -115.46034 19881 ft 303 kts 287°
2026-04-24 19:37 32.08471 -115.48335 19855 ft 302 kts 287°
2026-04-24 19:37 32.09216 -115.50686 19879 ft 303 kts 287°
2026-04-24 19:37 32.09954 -115.53011 19886 ft 303 kts 287°
2026-04-24 19:38 32.10684 -115.55315 19889 ft 303 kts 287°
2026-04-24 19:38 32.11433 -115.57677 19891 ft 303 kts 287°
2026-04-24 19:38 32.12168 -115.59993 19892 ft 302 kts 287°
2026-04-24 19:38 32.12898 -115.62302 19893 ft 302 kts 287°
2026-04-24 19:39 32.13627 -115.64607 19894 ft 302 kts 287°
2026-04-24 19:39 32.14365 -115.66944 19894 ft 302 kts 287°
2026-04-24 19:39 32.15099 -115.69276 19900 ft 302 kts 287°
2026-04-24 19:39 32.15832 -115.71603 19906 ft 302 kts 287°
2026-04-24 19:40 32.16563 -115.73922 19908 ft 302 kts 287°
2026-04-24 19:40 32.17296 -115.76250 19909 ft 302 kts 287°
2026-04-24 19:40 32.17780 -115.77789 19910 ft 302 kts 287°
2026-04-24 19:40 32.18756 -115.80896 19911 ft 302 kts 287°
2026-04-24 19:41 32.19239 -115.82434 19911 ft 301 kts 287°
2026-04-24 19:41 32.19956 -115.84713 19859 ft 289 kts 287°
2026-04-24 19:41 32.20645 -115.86898 19540 ft 285 kts 287°
2026-04-24 19:41 32.21339 -115.89117 19090 ft 286 kts 287°
2026-04-24 19:42 32.22028 -115.91328 18639 ft 287 kts 287°
2026-04-24 19:42 32.22721 -115.93550 18190 ft 288 kts 287°
2026-04-24 19:42 32.23415 -115.95768 17744 ft 289 kts 287°
2026-04-24 19:42 32.24112 -115.97999 17295 ft 290 kts 287°
2026-04-24 19:43 32.24804 -116.00215 16851 ft 291 kts 287°
2026-04-24 19:43 32.25504 -116.02460 16404 ft 292 kts 287°
2026-04-24 19:43 32.26209 -116.04723 15955 ft 294 kts 287°
2026-04-24 19:43 32.26918 -116.07001 15506 ft 295 kts 287°
2026-04-24 19:44 32.27628 -116.09280 15058 ft 296 kts 287°
2026-04-24 19:44 32.28342 -116.11571 14600 ft 297 kts 287°
2026-04-24 19:44 32.29040 -116.13809 14150 ft 295 kts 287°
2026-04-24 19:44 32.29755 -116.16115 13687 ft 292 kts 287°
2026-04-24 19:45 32.30452 -116.18360 13240 ft 290 kts 287°
2026-04-24 19:45 32.31141 -116.20580 12888 ft 284 kts 287°
2026-04-24 19:45 32.31752 -116.22554 12513 ft 281 kts 287°
2026-04-24 19:45 32.32432 -116.24752 12058 ft 280 kts 287°
2026-04-24 19:46 32.33100 -116.26908 11606 ft 278 kts 288°
2026-04-24 19:46 32.33755 -116.29022 11162 ft 276 kts 288°
2026-04-24 19:46 32.34410 -116.31145 10712 ft 275 kts 288°
2026-04-24 19:46 32.35059 -116.33249 10264 ft 273 kts 288°
2026-04-24 19:47 32.35709 -116.35363 9934 ft 266 kts 288°
2026-04-24 19:47 32.36328 -116.37357 9894 ft 251 kts 288°
2026-04-24 19:47 32.36916 -116.39262 9902 ft 240 kts 288°
2026-04-24 19:47 32.37422 -116.41114 9754 ft 236 kts 282°
2026-04-24 19:48 32.37806 -116.43004 9586 ft 237 kts 281°
2026-04-24 19:48 32.38179 -116.44898 9209 ft 238 kts 282°
2026-04-24 19:48 32.39026 -116.48681 8318 ft 241 kts 284°
2026-04-24 19:49 32.39893 -116.52541 7414 ft 241 kts 283°
2026-04-24 19:49 32.40729 -116.56369 6516 ft 240 kts 283°
2026-04-24 19:50 32.41952 -116.61864 5937 ft 206 kts 283°
2026-04-24 19:50 32.42298 -116.63434 5973 ft 186 kts 283°
2026-04-24 19:51 32.43205 -116.66100 6090 ft 170 kts 293°
2026-04-24 19:51 32.43722 -116.67383 6168 ft 174 kts 293°
2026-04-24 19:52 32.44689 -116.69968 6041 ft 171 kts 291°
2026-04-24 19:52 32.45165 -116.71246 5804 ft 170 kts 291°
2026-04-24 19:52 32.45645 -116.72506 5438 ft 168 kts 291°
2026-04-24 19:52 32.46120 -116.73777 5059 ft 167 kts 292°
2026-04-24 19:53 32.46594 -116.75033 4683 ft 167 kts 292°
2026-04-24 19:53 32.47059 -116.76280 4310 ft 166 kts 292°
2026-04-24 19:53 32.47997 -116.78768 3678 ft 165 kts 292°
2026-04-24 19:54 32.48461 -116.80009 3391 ft 164 kts 292°
2026-04-24 19:54 32.48924 -116.81242 3121 ft 163 kts 292°
2026-04-24 19:54 32.49386 -116.82480 2849 ft 162 kts 292°
2026-04-24 19:54 32.49822 -116.83641 2560 ft 150 kts 292°
2026-04-24 19:55 32.50105 -116.84388 2361 ft 144 kts 292°
2026-04-24 19:55 32.50644 -116.85825 2001 ft 144 kts 292°
2026-04-24 19:55 32.51159 -116.86849 1728 ft 145 kts 304°
2026-04-24 19:55 32.51778 -116.87733 1682 ft 131 kts 307°
2026-04-24 19:56 32.52321 -116.88568 1683 ft 129 kts 304°
2026-04-24 19:56 32.52835 -116.89466 1768 ft 138 kts 296°
2026-04-24 19:56 32.53215 -116.90569 1712 ft 149 kts 282°
2026-04-24 19:56 32.53423 -116.91777 1502 ft 150 kts 277°
2026-04-24 19:57 32.53602 -116.93012 1122 ft 151 kts 278°
2026-04-24 19:57 32.53732 -116.94216 835 ft 142 kts 277°
2026-04-24 19:57 32.53872 -116.95335 562 ft 133 kts 283°
2026-04-24 19:57 32.54016 -116.96316 504 ft 108 kts 277°
2026-04-24 19:58 32.54096 -116.96903 504 ft 27 kts 276°
2026-04-24 19:58 32.54104 -116.96983 504 ft 7 kts 277°
2026-04-24 19:58 32.54114 -116.97044 504 ft 8 kts 276°
2026-04-24 19:58 32.54122 -116.97118 504 ft 10 kts 287°
2026-04-24 19:59 32.54146 -116.97198 504 ft 11 kts 296°
2026-04-24 19:59 32.54180 -116.97263 504 ft 7 kts 309°
2026-04-24 19:59 32.54215 -116.97311 504 ft 8 kts 310°
2026-04-24 19:59 32.54237 -116.97343 504 ft 3 kts 309°
2026-04-24 20:00 32.54256 -116.97368 504 ft 5 kts 312°
2026-04-24 20:00 32.54285 -116.97400 504 ft 6 kts 332°
2026-04-24 20:00 32.54327 -116.97410 504 ft 7 kts 356°
2026-04-24 20:00 32.54336 -116.97410 504 ft 2 kts 359°
2026-04-24 20:01 32.54355 -116.97408 504 ft 4 kts
2026-04-24 20:01 32.54380 -116.97406 504 ft 0 kts 352°
2026-04-24 20:01 32.54389 -116.97409 504 ft 2 kts 345°
2026-04-24 20:01 32.54412 -116.97417 504 ft 4 kts 344°
2026-04-24 20:02 32.54431 -116.97423 504 ft 4 kts 343°
2026-04-24 20:02 32.54432 -116.97424 504 ft 0 kts 343°